OpenBCM V1.13 (Linux)

Packet Radio Mailbox

DB0FHN

[JN59NK Nuernberg]

 Login: GUEST





  
CX2SA  > KEPS     17.08.04 07:32l 95 Lines 2132 Bytes #999 (0) @ AMSAT
BID : ORB04229.M
Read: GUEST
Subj: Orbital Elements 04229.MISC
Path: DB0FHN<DB0THA<DB0ERF<DB0FBB<DB0GOS<DB0EEO<DB0RES<ON0AR<IW2ESA<IK1ZNW<
      I0TVL<CX2SA
Sent: 040817/0525Z @:CX2SA.LAV.URY.SA #:1399 [Minas] FBB7.00e $:ORB04229.M
From: CX2SA@CX2SA.LAV.URY.SA
To  : KEPS@AMSAT


HR AMSAT ORBITAL ELEMENTS FOR MANNED AND MISCELLANEOUS SATELLITES
FROM WA5QGD FORT WORTH,TX August 16, 2004
SEND SUBSCRIBE/UNSUBSCRIBE TO majordomo@amsat.org <mailto:majordomo@amsat.org> ONLY
BID: ORB04229.M
TO ALL RADIO AMATEURS BT

Satellite: HUBBLE
Catalog number: 20580
Epoch time: 04229.75934260
Element set: 132
Inclination: 28.4685 deg
RA of node: 91.7107 deg
Eccentricity: 0.0003988
Arg of perigee: 279.4390 deg
Mean anomaly: 80.5753 deg
Mean motion: 14.99257936 rev/day
Decay rate: 9.20e-06 rev/day^2
Epoch rev: 58450
Checksum: 319

Satellite: UARS
Catalog number: 21701
Epoch time: 04228.78942371
Element set: 245
Inclination: 56.9813 deg
RA of node: 347.8334 deg
Eccentricity: 0.0006696
Arg of perigee: 107.7822 deg
Mean anomaly: 252.3941 deg
Mean motion: 15.03595564 rev/day
Decay rate: 1.75e-06 rev/day^2
Epoch rev: 70755
Checksum: 312

Satellite: PO-34
Catalog number: 25520
Epoch time: 04228.91874568
Element set: 991
Inclination: 28.4601 deg
RA of node: 192.3240 deg
Eccentricity: 0.0006128
Arg of perigee: 145.9786 deg
Mean anomaly: 214.1210 deg
Mean motion: 15.15672086 rev/day
Decay rate: 1.064e-05 rev/day^2
Epoch rev: 32021
Checksum: 283

Satellite: ISS
Catalog number: 25544
Epoch time: 04230.01793981
Element set: 460
Inclination: 51.6327 deg
RA of node: 15.2067 deg
Eccentricity: 0.0005364
Arg of perigee: 121.3768 deg
Mean anomaly: 33.0504 deg
Mean motion: 15.70950851 rev/day
Decay rate: 1.9393e-04 rev/day^2
Epoch rev: 32787
Checksum: 283

Satellite: OO-38
Catalog number: 26063
Epoch time: 04229.50915444
Element set: 137
Inclination: 100.2180 deg
RA of node: 27.4794 deg
Eccentricity: 0.0036748
Arg of perigee: 192.0622 deg
Mean anomaly: 167.9690 deg
Mean motion: 14.35661600 rev/day
Decay rate: 7.0e-07 rev/day^2
Epoch rev: 23857
Checksum: 296

Satellite: NO-45
Catalog number: 26932
Epoch time: 04228.88107884
Element set: 830
Inclination: 67.0592 deg
RA of node: 293.7224 deg
Eccentricity: 0.0004446
Arg of perigee: 276.8953 deg
Mean anomaly: 83.1640 deg
Mean motion: 14.29436835 rev/day
Decay rate: -5.2e-07 rev/day^2
Epoch rev: 15016
Checksum: 317



Read previous mail | Read next mail


 04.09.2026 21:08:06lGo back Go up